Weather History for PASC - March, 2013

Change the Weather History Date:

Monday, March 4, 2013

  Actual Average Record
Temperature  
Mean Temperature -14 °F -  
Max Temperature -11 °F -7 °F 10 °F (2003)
Min Temperature -18 °F -20 °F -44 °F (2007)
Degree Days  
Heating Degree Days 80    
Moisture  
Dew Point -20 °F    
Average Humidity 77    
Maximum Humidity 84    
Minimum Humidity 70    
Precipitation  
Precipitation 0.00 in - - ()
Sea Level Pressure  
Sea Level Pressure 30.51 in    
Wind  
Wind Speed 26 mph (East)    
Max Wind Speed 31 mph    
Max Gust Speed 36 mph    
Averages and records for this station are not official NWS values.
T = Trace of Precipitation, MM = Missing Value Source: NWS Daily Summary

Daily Weather History Graph

Daily Weather History Graph

Search for Another Location

Airport or City:

Trip Planner

Search our weather history database for the weather conditions in past years. The results will help you decide how hot, cold, wet, or windy it might be!

Date:

Astronomy

Mar. 04, 2013 Rise Set
Actual Time 8:05 AM AKST 6:07 PM AKST
Civil Twilight 7:03 AM AKST 7:09 PM AKST
Nautical Twilight 5:52 AM AKST 8:21 PM AKST
Astronomical Twilight 4:34 AM AKST 9:40 PM AKST
Moon No Moon Rise No Moon Set
Length of Visible Light 12h 06m
Length of Day
10h 02m
Waning Gibbous, 50% of the Moon is Illuminated
Mar 4
Waning Gibbous
Mar 4
Last Quarter
Mar 11
New
Mar 19
First Quarter
Mar 27
Full

Hourly Weather History & Observations

Time (AKST) Temp. Windchill Dew Point Humidity Pressure Visibility Wind Dir Wind Speed Gust Speed Precip Events Conditions
12:53 AM -18.4 °F -49.4 °F -23.8 °F 76% 30.51 in 0.5 mi East 26.5 mph - N/A Fog , Snow Blowing Snow
1:11 AM -18.4 °F -48.8 °F -23.8 °F 76% 30.50 in 0.5 mi East 25.3 mph 34.5 mph N/A Fog , Snow Blowing Snow
1:53 AM -18.4 °F -48.8 °F -23.8 °F 76% 30.52 in 0.8 mi East 25.3 mph - N/A Fog , Snow Blowing Snow
2:53 AM -18.4 °F -48.8 °F -23.8 °F 76% 30.51 in 0.5 mi East 25.3 mph - N/A Fog , Snow Blowing Snow
3:53 AM -18.4 °F -48.3 °F -23.8 °F 76% 30.52 in 0.5 mi East 24.2 mph - N/A Fog , Snow Blowing Snow
4:53 AM -18.4 °F -48.8 °F -23.8 °F 76% 30.53 in 0.5 mi East 25.3 mph 32.2 mph N/A Fog , Snow Blowing Snow
5:53 AM -18.4 °F -48.3 °F -23.8 °F 76% 30.54 in 0.5 mi East 24.2 mph - N/A Fog , Snow Blowing Snow
6:53 AM -18.4 °F -50.3 °F -23.8 °F 76% 30.53 in 0.8 mi East 28.8 mph - N/A Snow Blowing Snow
7:53 AM -18.4 °F -50.3 °F -23.8 °F 76% 30.51 in 0.8 mi East 28.8 mph - N/A Snow Blowing Snow
8:22 AM -18.4 °F -50.3 °F -23.8 °F 76% 30.51 in 0.5 mi East 28.8 mph - N/A Snow Blowing Snow
8:53 AM -18.4 °F -49.4 °F -22.0 °F 84% 30.53 in 0.5 mi East 26.5 mph - N/A Snow Blowing Snow
9:53 AM -16.6 °F -46.4 °F -22.0 °F 76% 30.52 in 0.5 mi East 25.3 mph 34.5 mph N/A Snow Blowing Snow
10:53 AM -16.6 °F -47.9 °F -20.2 °F 84% 30.53 in 0.5 mi East 28.8 mph 34.5 mph N/A Snow Blowing Snow
11:53 AM -14.8 °F -43.5 °F -20.2 °F 77% 30.54 in 0.5 mi East 24.2 mph - N/A Snow Blowing Snow
12:09 PM -14.8 °F -44.0 °F -22.0 °F 70% 30.53 in 0.5 mi East 25.3 mph - N/A Snow Blowing Snow
12:18 PM -14.8 °F -44.5 °F -22.0 °F 70% 30.52 in 0.5 mi East 26.5 mph - N/A Snow Blowing Snow
12:24 PM -14.8 °F -44.0 °F -22.0 °F 70% 30.52 in 0.2 mi East 25.3 mph - N/A Snow Blowing Snow
12:53 PM -14.8 °F -45.0 °F -18.4 °F 84% 30.53 in 0.5 mi East 27.6 mph - N/A Snow Blowing Snow
1:15 PM -13.0 °F -42.1 °F -18.4 °F 77% 30.51 in 0.5 mi East 26.5 mph - N/A Snow Blowing Snow
1:23 PM -13.0 °F -42.1 °F -18.4 °F 77% 30.52 in 0.5 mi East 26.5 mph - N/A Snow Blowing Snow
1:44 PM -13.0 °F -42.1 °F -18.4 °F 77% 30.51 in 0.5 mi East 26.5 mph - N/A Snow Blowing Snow
1:53 PM -13.0 °F -40.6 °F -18.4 °F 77% 30.52 in 0.5 mi East 23.0 mph 31.1 mph N/A Snow Blowing Snow
2:25 PM -13.0 °F -41.1 °F -18.4 °F 77% 30.52 in 0.5 mi East 24.2 mph - N/A Snow Blowing Snow
2:53 PM -13.0 °F -42.1 °F -18.4 °F 77% 30.52 in 0.5 mi East 26.5 mph - N/A Snow Blowing Snow
3:53 PM -13.0 °F -41.1 °F -16.6 °F 84% 30.53 in 0.5 mi East 24.2 mph - N/A Fog , Snow Blowing Snow
4:53 PM -11.2 °F -39.2 °F -16.6 °F 77% 30.51 in 0.5 mi East 25.3 mph - N/A Fog , Snow Blowing Snow
5:53 PM -11.2 °F -40.1 °F -16.6 °F 77% 30.50 in 0.5 mi East 27.6 mph - N/A Fog , Snow Blowing Snow
6:01 PM -11.2 °F -40.1 °F -16.6 °F 77% 30.49 in 0.5 mi East 27.6 mph - N/A Fog , Snow Blowing Snow
6:11 PM -11.2 °F -40.1 °F -16.6 °F 77% 30.50 in 0.5 mi East 27.6 mph 34.5 mph N/A Fog , Snow Blowing Snow
6:31 PM -11.2 °F -39.2 °F -16.6 °F 77% 30.50 in 0.5 mi East 25.3 mph - N/A Fog , Snow Blowing Snow
6:53 PM -11.2 °F -39.2 °F -16.6 °F 77% 30.50 in 0.5 mi East 25.3 mph 33.4 mph N/A Fog , Snow Blowing Snow
7:53 PM -11.2 °F -41.5 °F -14.8 °F 84% 30.49 in 0.5 mi East 31.1 mph 35.7 mph N/A Fog , Snow Blowing Snow
8:53 PM -11.2 °F -39.2 °F -16.6 °F 77% 30.47 in 0.5 mi East 25.3 mph 34.5 mph N/A Fog , Snow Blowing Snow
9:53 PM -11.2 °F -41.0 °F -16.6 °F 77% 30.45 in 0.5 mi East 29.9 mph 35.7 mph N/A Fog , Snow Blowing Snow
10:53 PM -11.2 °F -40.1 °F -16.6 °F 77% 30.45 in 0.5 mi East 27.6 mph 34.5 mph N/A Fog , Snow Blowing Snow
11:53 PM -13.0 °F -40.6 °F -16.6 °F 84% 30.44 in 0.5 mi East 23.0 mph - N/A Fog , Snow Blowing Snow